Location: Brachbach
(49.1847°N, 9.7240°E)
Time: 06:19:28
(UTC+00:00)

PCSat - Pass Details

Date: 17 March 2026
Orbit: 780 x 790 km, 67.1° (Epoch: 13 April)

Event Time Altitude Azimuth Distance (km) Brightness Sun altitude
Exits shadow 01:07:55 12° 334° (NNW) 2,246 12.2 -37.8°
Maximum altitude 01:09:11 13° 349° (N) 2,191 12.3 -37.7°
Drops below altitude 10° 01:11:27 10° 14° (NNE) 2,365 12.7 -37.5°
Sets 01:15:30 0° 43° (NE) 3,296 13.7 -37.1°
